Location: ?????????
(54.7630°N, 39.4991°E)
Time: 10:57:04
(UTC+00:00)

Cosmos 2263 - Pass Details

Date: 14 April 2026
Orbit: 831 x 863 km, 70.9° (Epoch: 10 May)

Event Time Altitude Azimuth Distance (km) Brightness Sun altitude
Rises 18:55:06 0° 326° (NW) 3,391 9.0 -18.6°
Reaches altitude 10° 18:57:35 10° 330° (NNW) 2,456 7.8 -18.8°
Maximum altitude 19:03:09 60° 50° (NE) 962 4.4 -19.3°
Enters shadow 19:05:36 33° 117° (ESE) 1,387 4.8 -19.5°
